Location: Prague
(50.0830°N, 14.4670°E)
Time: 05:22:17
(UTC+01:00)

UKube-1 - Visible Passes

Search period start: 26 November 2020 00:00
Search period end: 06 December 2020 00:00
Orbit: 612 x 618 km, 98.4° (Epoch: 25 November)

Date Brightness Start Highest point End Pass type
(mag) Time Alt. Az. Time Alt. Az. Time Alt. Az.
26 Nov ? 04:54:32 10° ESE 04:57:31 19° ENE 05:00:31 10° NNE visible
26 Nov ? 06:28:49 10° S 06:33:04 61° WSW 06:37:22 10° NNW visible
27 Nov ? 05:09:44 10° ESE 05:13:13 25° ENE 05:16:43 10° N visible
27 Nov ? 06:44:52 10° S 06:48:58 43° W 06:53:06 10° NNW visible
28 Nov ? 05:25:06 10° SE 05:28:56 33° ENE 05:32:50 10° N visible
29 Nov ? 05:40:37 10° SE 05:44:43 45° ENE 05:48:50 10° N visible
30 Nov ? 04:25:13 10° NE 04:25:24 10° NE 04:25:35 10° NE visible
30 Nov ? 05:56:15 10° SSE 06:00:30 63° ENE 06:04:48 10° N visible
01 Dec ? 04:38:56 10° E 04:41:01 13° NE 04:43:08 10° NNE visible
01 Dec ? 06:12:01 10° SSE 06:16:20 89° ENE 06:20:40 10° NNW visible
02 Dec ? 04:53:48 10° E 04:56:40 18° ENE 04:59:34 10° NNE visible
02 Dec ? 06:27:55 10° S 06:32:12 65° WSW 06:36:30 10° NNW visible
03 Dec ? 05:08:57 10° ESE 05:12:22 23° ENE 05:15:48 10° N visible
03 Dec ? 06:43:57 10° S 06:48:05 46° W 06:52:15 10° NNW visible
04 Dec ? 05:24:18 10° SE 05:28:05 31° ENE 05:31:54 10° N visible
04 Dec ? 07:00:08 10° SSW 07:04:01 33° W 07:07:55 10° NNW visible
05 Dec ? 05:39:46 10° SE 05:43:50 42° ENE 05:47:56 10° N visible
